| time (UTC) | temp C | wind direction | speed KPH | gust KPH | rain 1hr cm | rain 24hr cm | rain mn cm | humidity % | barometer mb |
| 20260504011517 | 15 | 342 | 6.4 | 20.9 | 0.05 | 0.48 | 0.46 | 90 | 1014.3 |
| 20260504010016 | 15 | 22 | 6.4 | 24.1 | 0.05 | 0.48 | 0.46 | 91 | 1014.3 |
| 20260504004520 | 15 | 311 | 3.2 | 22.5 | 0.05 | 0.48 | 0.46 | 91 | 1014.6 |
| 20260504003015 | 15 | 314 | 11.3 | 27.4 | 0.05 | 0.48 | 0.46 | 90 | 1014.7 |
| 20260504001514 | 15 | 5 | 9.7 | 25.7 | 0.03 | 0.43 | 0.43 | 91 | 1014.7 |
| 20260504000013 | 15 | 331 | 9.7 | 20.9 | 0.03 | 0.43 | 0.43 | 92 | 1014.5 |
| 20260503234512 | 15 | 5 | 3.2 | 20.9 | 0.05 | 0.43 | 0.43 | 93 | 1014.5 |
| 20260503233017 | 15 | 350 | 11.3 | 25.7 | 0.13 | 0.43 | 0.41 | 93 | 1014.5 |
| 20260503231510 | 15 | 355 | 3.2 | 22.5 | 0.13 | 0.43 | 0.41 | 94 | 1014.6 |
| 20260503230010 | 15 | 338 | 3.2 | 14.5 | 0.13 | 0.43 | 0.41 | 94 | 1014.7 |
| 20260503224509 | 15 | 5 | 1.6 | 16.1 | 0.10 | 0.41 | 0.38 | 94 | 1014.7 |
| 20260503223007 | -17 | 0.0 | 0.0 | 0.00 | 0.30 | 0.28 | 1014.6 | ||
| 20260503221501 | -17 | 0.0 | 0.0 | 0.00 | 0.30 | 0.28 | 1014.7 | ||
| 20260503220100 | -17 | 0.0 | 0.0 | 0.00 | 0.30 | 0.28 | 1014.7 | ||
| 20260503214555 | -17 | 0.0 | 0.0 | 0.00 | 0.30 | 0.28 | 1014.6 | ||
| 20260503213051 | -17 | 0.0 | 0.0 | 0.00 | 0.30 | 0.28 | 1014.5 | ||
| 20260503211546 | -17 | 0.0 | 0.0 | 0.00 | 0.30 | 0.28 | 1014.5 | ||
| 20260503210042 | -17 | 0.0 | 0.0 | 0.00 | 0.30 | 0.28 | 1014.4 | ||
| 20260503204539 | -17 | 0.0 | 0.0 | 0.00 | 0.30 | 0.28 | 1014.2 | ||
| 20260503203042 | -17 | 0.0 | 0.0 | 0.00 | 0.30 | 0.28 | 1014.0 | ||
| 20260503201529 | -17 | 0.0 | 0.0 | 0.00 | 0.30 | 0.28 | 1014.0 | ||
| 20260503200024 | -17 | 0.0 | 0.0 | 0.00 | 0.30 | 0.28 | 1014.0 | ||
| 20260503194522 | -17 | 0.0 | 0.0 | 0.03 | 0.30 | 0.28 | 1014.0 | ||
| 20260503193016 | -17 | 0.0 | 0.0 | 0.05 | 0.30 | 0.28 | 1014.0 | ||
| 20260503191510 | -17 | 0.0 | 0.0 | 0.05 | 0.30 | 0.28 | 1014.2 | ||
| 20260503190008 | -17 | 0.0 | 0.0 | 0.05 | 0.30 | 0.28 | 1014.4 | ||
| 20260503184510 | 14 | 20 | 0.0 | 0.0 | 0.00 | 0.25 | 0.23 | 94 | 1014.5 |
| 20260503183002 | 14 | 20 | 0.0 | 0.0 | 0.00 | 0.25 | 0.23 | 94 | 1014.7 |
| 20260503181559 | 14 | 20 | 0.0 | 1.6 | 0.03 | 0.25 | 0.23 | 94 | 1014.8 |
| 20260503181503 | 14 | 20 | 0.0 | 1.6 | 0.05 | 0.25 | 0.23 | 94 | 1014.8 |
| 20260503180107 | 14 | 20 | 0.0 | 4.8 | 0.05 | 0.25 | 0.23 | 94 | 1014.9 |
| 20260503180000 | 14 | 20 | 0.0 | 4.8 | 0.05 | 0.25 | 0.23 | 94 | 1014.8 |
| 20260503174601 | 14 | 21 | 1.6 | 9.7 | 0.05 | 0.25 | 0.23 | 94 | 1014.7 |
| 20260503173109 | 14 | 5 | 1.6 | 9.7 | 0.05 | 0.25 | 0.23 | 93 | 1014.8 |
| 20260503171555 | 14 | 351 | 1.6 | 9.7 | 0.05 | 0.23 | 0.23 | 93 | 1015.0 |
| 20260503170122 | 14 | 27 | 0.0 | 4.8 | 0.03 | 0.20 | 0.18 | 93 | 1015.4 |
| 20260503081521 | 17 | 297 | 0.0 | 0.0 | 0.00 | 0.00 | 0.00 | 81 | 1017.2 |
| 20260503071519 | 18 | 298 | 0.0 | 8.0 | 0.00 | 0.00 | 0.00 | 76 | 1016.2 |
| 20260503054510 | 20 | 291 | 0.0 | 4.8 | 0.00 | 0.00 | 0.00 | 66 | 1016.5 |
| 20260503053009 | 20 | 291 | 0.0 | 9.7 | 0.00 | 0.00 | 0.00 | 66 | 1016.5 |
| 20260503051508 | 20 | 250 | 1.6 | 8.0 | 0.00 | 0.00 | 0.00 | 63 | 1016.6 |
| 20260503050015 | 20 | 247 | 3.2 | 12.9 | 0.00 | 0.00 | 0.00 | 63 | 1016.7 |
| 20260503044505 | 20 | 248 | 0.0 | 14.5 | 0.00 | 0.00 | 0.00 | 64 | 1016.9 |
| 20260503043004 | 20 | 348 | 3.2 | 14.5 | 0.00 | 0.00 | 0.00 | 64 | 1016.9 |
| 20260503041559 | 20 | 323 | 1.6 | 9.7 | 0.00 | 0.00 | 0.00 | 65 | 1017.1 |
| 20260503040113 | 20 | 5 | 1.6 | 8.0 | 0.00 | 0.00 | 0.00 | 65 | 1017.2 |
| 20260503034553 | 20 | 5 | 4.8 | 12.9 | 0.00 | 0.00 | 0.00 | 65 | 1017.2 |
| 20260503033048 | 19 | 292 | 3.2 | 11.3 | 0.00 | 0.00 | 0.00 | 68 | 1017.4 |
| 20260503031600 | 19 | 269 | 1.6 | 12.9 | 0.00 | 0.00 | 0.00 | 68 | 1017.7 |
| 20260503030049 | 19 | 316 | 3.2 | 12.9 | 0.00 | 0.00 | 0.00 | 67 | 1018.0 |
| 20260503024542 | 19 | 268 | 1.6 | 9.7 | 0.00 | 0.00 | 0.00 | 68 | 1018.1 |
| 20260503023039 | 19 | 236 | 0.0 | 6.4 | 0.00 | 0.00 | 0.00 | 67 | 1018.3 |
| 20260503021535 | 19 | 313 | 1.6 | 8.0 | 0.00 | 0.00 | 0.00 | 67 | 1018.8 |
| 20260503020036 | 18 | 301 | 1.6 | 9.7 | 0.00 | 0.00 | 0.00 | 68 | 1019.1 |
| 20260503014529 | 18 | 30 | 1.6 | 8.0 | 0.00 | 0.00 | 0.00 | 68 | 1019.3 |
| 20260503013030 | 18 | 348 | 1.6 | 11.3 | 0.00 | 0.00 | 0.00 | 71 | 1019.7 |